FW5258 Weather Reports


time (UTC)temp
F
wind
direction
speed
knots
gust
knots
rain 1hr
in
rain 24hr
in
rain mn
in
humidity
%
barometer
mb
20260505005403 75 250 3.5 6.1 0.00 0.12 0.05 52 998.8
20260505004901 75 257 3.5 7.0 0.00 0.12 0.05 52 998.8
20260505004359 75 242 3.5 7.0 0.00 0.12 0.05 52 998.8
20260505003900 75 240 3.5 4.3 0.00 0.12 0.05 51 998.7
20260505003401 75 240 2.6 4.3 0.00 0.12 0.05 50 998.7
20260505002858 76 241 3.5 6.1 0.00 0.12 0.05 50 998.6
20260505002358 76 246 3.5 6.1 0.00 0.12 0.05 50 998.6
20260505001859 76 244 3.5 7.0 0.00 0.12 0.05 50 998.6
20260505001400 76 241 2.6 7.0 0.00 0.12 0.05 49 998.6
20260505000856 76 225 2.6 7.0 0.00 0.12 0.05 49 998.5
20260505000347 77 254 4.3 7.0 0.00 0.12 0.05 48 998.5
20260504235840 77 252 4.3 7.0 0.00 0.12 0.05 48 998.6
20260504235335 77 239 3.5 7.8 0.00 0.12 0.05 48 998.4
20260504234833 77 223 4.3 7.8 0.00 0.12 0.05 47 998.4
20260504234333 77 237 4.3 7.8 0.00 0.12 0.05 47 998.4
20260504233831 78 224 4.3 7.8 0.00 0.12 0.05 47 998.5
20260504233822 78 228 4.3 7.8 0.00 0.12 0.05 46 998.4
20260504232842 78 242 4.3 9.6 0.00 0.12 0.05 47 998.5
20260504232330 79 184 5.2 9.6 0.00 0.12 0.05 46 998.5
20260504231831 79 223 5.2 9.6 0.00 0.12 0.05 46 998.5
20260504231330 79 232 4.3 9.6 0.00 0.12 0.05 46 998.6
20260504231049 79 240 4.3 9.6 0.00 0.12 0.05 44 998.6
20260504230331 79 229 5.2 10.4 0.00 0.12 0.05 44 998.6
20260504230048 80 219 5.2 11.3 0.00 0.12 0.05 43 998.6
20260504225549 80 232 6.1 11.3 0.00 0.12 0.05 43 998.6
20260504224828 80 222 7.0 13.0 0.00 0.12 0.05 43 998.7
20260504224329 80 203 7.8 13.0 0.00 0.12 0.05 42 998.7
20260504223829 81 234 6.1 13.0 0.00 0.12 0.05 42 998.7
20260504223330 81 243 6.1 12.2 0.00 0.12 0.05 45 998.7
20260504222828 80 235 7.0 13.0 0.00 0.12 0.05 45 998.7
20260504222325 80 221 7.0 13.0 0.00 0.12 0.05 45 998.7
20260504222052 81 242 7.0 13.0 0.00 0.12 0.05 45 998.8
20260504221325 81 227 7.0 13.0 0.00 0.12 0.05 45 998.8
20260504220825 80 215 7.8 13.9 0.00 0.12 0.05 44 998.8
20260504220325 80 245 7.8 13.9 0.00 0.12 0.05 45 998.9
20260504220053 80 246 7.0 13.0 0.00 0.12 0.05 44 998.9
20260504215325 81 181 7.0 13.0 0.00 0.12 0.05 45 998.9
20260504215053 81 241 7.8 15.6 0.00 0.12 0.05 45 999.0
20260504214326 81 249 7.8 15.6 0.00 0.12 0.05 45 999.0
20260504214023 81 193 6.1 10.4 0.00 0.12 0.05 46 999.1
20260504213908 81 243 6.1 13.9 0.00 0.12 0.05 46 999.0
20260504212901 81 247 4.3 9.6 0.00 0.12 0.05 46 999.0
20260504212820 81 205 7.0 12.2 0.00 0.12 0.05 45 999.0
20260504212812 80 199 5.2 10.4 0.00 0.12 0.05 45 999.2
20260504212808 81 242 7.8 12.2 0.00 0.12 0.05 45 999.0
20260504212804 81 236 6.1 11.3 0.00 0.12 0.05 46 999.0
20260504212758 81 226 5.2 11.3 0.00 0.12 0.05 46 999.0
20260504212636 81 229 5.2 10.4 0.00 0.12 0.05 46 999.1
20260504212626 81 181 6.1 11.3 0.00 0.12 0.05 47 999.1
20260504212620 81 245 5.2 11.3 0.00 0.12 0.05 46 999.2
20260504212615 80 189 4.3 10.4 0.00 0.12 0.05 46 999.2
20260504212359 81 248 6.1 12.2 0.00 0.12 0.05 47 999.0
20260504212314 81 257 6.1 11.3 0.00 0.12 0.05 46 999.0
20260504205944 81 254 5.2 10.4 0.00 0.12 0.05 46 999.0
20260504202312 80 273 6.1 13.0 0.00 0.12 0.05 47 999.3
20260504201813 80 226 7.0 13.0 0.00 0.12 0.05 47 999.3
20260504201313 80 248 7.0 11.3 0.00 0.12 0.05 46 999.4
20260504200814 80 243 7.8 13.9 0.00 0.12 0.05 46 999.4
20260504200314 80 245 7.8 13.9 0.00 0.12 0.05 47 999.5
20260504195811 80 240 7.0 13.0 0.00 0.12 0.05 47 999.7
20260504195309 80 275 6.1 11.3 0.00 0.12 0.05 46 999.7
20260504194806 80 220 7.0 13.0 0.00 0.12 0.05 47 999.9
20260504194305 79 232 7.8 13.0 0.00 0.12 0.05 49 999.8
20260504194029 79 240 7.8 13.0 0.00 0.12 0.05 50 999.9
20260504193258 79 234 7.0 13.0 0.00 0.12 0.05 48 999.9
20260504192753 79 242 6.1 11.3 0.00 0.12 0.05 47 999.9
20260504192247 79 188 5.2 11.3 0.00 0.12 0.05 46 999.9
20260504191740 79 242 5.2 11.3 0.00 0.12 0.05 49 999.9
20260504191233 79 259 6.1 11.3 0.00 0.12 0.05 50 1000.0
20260504190728 79 200 6.1 9.6 0.00 0.12 0.05 48 1000.1
20260504190450 78 246 6.1 10.4 0.00 0.12 0.05 50 1000.0
20260504185716 78 223 6.1 10.4 0.00 0.12 0.05 50 1000.1
20260504185209 78 260 5.2 9.6 0.00 0.12 0.05 53 1000.0
20260504184936 78 257 7.0 11.3 0.00 0.12 0.05 50 1000.1
20260504184158 78 243 7.0 13.0 0.00 0.12 0.05 50 1000.2
20260504183652 78 227 6.1 13.0 0.00 0.12 0.05 49 1000.3
20260504183146 77 234 6.1 11.3 0.00 0.12 0.05 53 1000.3
20260504182641 77 214 7.0 13.9 0.00 0.12 0.05 50 1000.2
20260504182134 77 242 7.8 15.6 0.00 0.12 0.05 50 1000.2
20260504181627 77 217 7.8 15.6 0.00 0.12 0.05 50 1000.2
20260504181122 76 256 7.8 12.2 0.00 0.12 0.05 52 1000.1
20260504180616 76 248 7.8 12.2 0.00 0.12 0.05 50 1000.2
20260504180110 76 228 7.8 15.6 0.00 0.12 0.05 52 1000.2
20260504175605 76 250 8.7 15.6 0.00 0.12 0.05 53 1000.4
20260504175058 76 265 9.6 13.9 0.00 0.12 0.05 50 1000.3
20260504174551 75 257 9.6 13.9 0.00 0.12 0.05 52 1000.3
20260504174046 75 270 8.7 14.8 0.00 0.12 0.05 54 1000.2
20260504173539 75 259 7.0 14.8 0.00 0.12 0.05 52 1000.3
20260504173034 75 248 8.7 13.9 0.00 0.12 0.05 52 1000.3
20260504172528 75 244 8.7 13.9 0.00 0.12 0.05 50 1000.3
20260504172022 76 250 7.0 13.0 0.00 0.12 0.05 53 1000.4
20260504171516 75 208 6.1 11.3 0.00 0.12 0.05 54 1000.5
20260504171010 75 185 7.0 13.0 0.00 0.12 0.05 52 1000.5
20260504170504 74 217 7.8 13.0 0.00 0.12 0.05 54 1000.7
20260504160356 72 250 7.0 13.0 0.00 0.12 0.05 55 1000.8
20260504150856 70 236 7.0 12.2 0.00 0.12 0.05 59 1001.0
20260504150618 69 250 7.8 14.8 0.00 0.12 0.05 61 1001.1
20260504140846 67 183 4.3 11.3 0.00 0.12 0.05 63 1001.4
20260504140346 67 171 5.2 12.2 0.00 0.12 0.05 64 1001.5
20260504140105 66 236 7.0 13.9 0.00 0.12 0.05 63 1001.5
20260504130341 61 206 2.6 7.8 0.00 0.12 0.05 76 1001.7
20260504120317 55 177 0.0 0.0 0.00 0.12 0.05 80 1001.8
20260504110240 56 176 1.7 3.5 0.00 0.12 0.05 77 1001.7
20260504100127 57 180 3.5 7.0 0.00 0.12 0.05 74 1002.3
20260504081928 55 177 2.6 7.8 0.00 0.12 0.05 82 1003.9
20260504081421 55 179 0.9 6.1 0.00 0.12 0.05 82 1004.0
20260504081354 55 175 0.0 1.7 0.00 0.12 0.05 84 1004.0
20260504080410 55 175 0.0 2.6 0.00 0.12 0.05 83 1004.0
20260504070256 54 169 0.9 3.5 0.04 0.12 0.05 87 1005.2
20260504060144 55 355 0.9 3.5 0.01 0.08 0.01 85 1005.1
20260504050122 58 232 1.7 3.5 0.07 0.07 0.00 77 1005.9
20260504045621 58 232 1.7 3.5 0.06 0.06 0.06 75 1006.2
20260504045120 59 196 1.7 3.5 0.06 0.06 0.06 75 1005.7
20260504045055 59 204 1.7 4.3 0.00 0.00 0.00 73 1006.3
20260504044714 59 199 1.7 3.5 0.01 0.01 0.02 70 1006.0
20260504043620 60 172 1.7 4.3 0.00 0.00 0.00 71 1005.9
20260504043120 60 173 0.9 5.2 0.00 0.00 0.00 69 1006.2
20260504042619 60 173 1.7 5.2 0.00 0.00 0.00 69 1005.9
20260504042608 60 177 0.9 5.2 0.00 0.00 0.00 66 1006.1
20260504041620 60 173 0.0 1.7 0.00 0.00 0.00 67 1006.1
20260504041113 60 173 0.9 4.3 0.00 0.00 0.00 67 1006.0
20260504040606 60 173 2.6 6.1 0.00 0.00 0.00 66 1006.1
20260504035555 60 184 0.9 5.2 0.00 0.00 0.00 66 1006.1
20260504035049 60 214 0.9 2.6 0.00 0.00 0.00 65 1006.1
20260504034544 60 290 0.0 2.6 0.00 0.00 0.00 68 1006.2
20260504034038 60 296 0.0 0.0 0.00 0.00 0.00 65 1006.3
20260504033531 60 296 0.0 0.0 0.00 0.00 0.00 64 1006.4
20260504033252 60 296 0.0 0.0 0.00 0.00 0.00 61 1006.4
20260504032519 60 296 0.0 0.0 0.00 0.00 0.00 61 1006.4
20260504032241 60 296 0.0 0.0 0.00 0.00 0.00 63 1006.5
20260504031508 60 296 0.0 0.0 0.00 0.00 0.00 63 1006.5
20260504031002 60 296 0.0 0.0 0.00 0.00 0.00 64 1006.4
20260504030455 60 296 0.0 0.0 0.00 0.00 0.00 64 1006.4
20260504025948 60 296 0.0 0.0 0.00 0.00 0.00 65 1006.3
20260504025442 60 296 0.0 0.0 0.00 0.00 0.00 64 1006.3
20260504024936 61 296 0.0 0.0 0.00 0.00 0.00 64 1006.4
20260504024429 61 296 0.0 0.0 0.00 0.00 0.00 65 1006.4
20260504023923 62 296 0.0 0.0 0.00 0.00 0.00 64 1006.4
20260504023416 62 296 0.0 0.0 0.00 0.00 0.00 62 1006.5
20260504022910 63 296 0.0 0.0 0.00 0.00 0.00 61 1006.5
20260504022406 63 296 0.0 0.0 0.00 0.00 0.00 60 1006.4
20260504021858 64 296 0.0 0.0 0.00 0.00 0.00 59 1006.4
20260504021352 64 296 0.0 0.0 0.00 0.00 0.00 56 1006.3
20260504020847 64 294 0.0 0.0 0.00 0.00 0.00 54 1006.4
20260504020340 64 295 0.0 0.0 0.00 0.00 0.00 54 1006.4
20260504015835 65 295 0.0 0.0 0.00 0.00 0.00 55 1006.5
20260504015329 65 295 0.0 0.0 0.00 0.00 0.00 56 1006.5
20260504015043 65 295 0.0 0.0 0.00 0.00 0.00 54 1006.5
20260504014802 66 295 0.0 0.0 0.00 0.00 0.00 54 1006.7
20260504013811 66 295 0.0 0.0 0.00 0.00 0.00 53 1006.8
20260504013527 66 296 0.0 0.0 0.00 0.00 0.00 52 1006.7
20260504013016 67 296 0.0 0.0 0.00 0.00 0.00 52 1006.4
20260504012254 67 296 0.0 0.0 0.00 0.00 0.00 51 1006.3
20260504011748 67 296 0.0 0.0 0.00 0.00 0.00 50 1006.3
20260504011242 67 296 0.0 0.0 0.00 0.00 0.00 50 1006.3
20260504010957 68 295 0.0 0.0 0.00 0.00 0.00 50 1006.5
20260504010458 68 295 0.0 0.0 0.00 0.00 0.00 50 1006.4
20260504005722 68 271 0.0 0.9 0.00 0.00 0.00 51 1006.7